#timestamp,LO_Frequency,Hit 
1499605215.6,286046987.1,N
1499605235.5,286046988.4,N
1499605255.3,286046985.0,N
1499605275.2,286046983.3,N
1499605295.9,286046979.2,N
1499605315.7,286046976.1,Y
1499605335.6,286046977.9,N
1499605355.4,286046978.2,N
1499605375.3,286046978.6,N
1499605395.1,286046976.8,N
1499605396.0,286046976.8,N
1499605415.8,286046974.2,Y
1499605435.7,286046976.0,N
1499605455.5,286046975.4,N
1499605475.4,286046975.1,N
1499605495.2,286046973.9,N
1499605515.0,286046971.0,Y
1499605515.9,286046971.0,Y
1499605535.8,286046974.5,N
1499605555.6,286046975.0,N
1499605575.4,286046972.6,N
1499605595.3,286046972.9,N
1499605615.1,286046971.6,N
1499605635.9,286046969.7,Y
1499605655.7,286046973.2,N
1499605675.5,286046971.1,N
1499605695.4,286046971.9,N
1499605715.2,286046969.3,N
1499605735.0,286046972.1,N
1499605736.0,286046972.1,N
1499605755.8,286046970.9,N
1499605775.6,286046973.3,N
1499605795.5,286046974.7,N
1499605815.3,286046974.4,N
1499605835.1,286046977.1,N
1499605855.9,286046975.3,N
1499605875.7,286046974.9,N
1499605895.5,286046978.6,N
1499605915.4,286046977.7,N
1499605935.2,286046979.4,N
1499605955.1,286046981.8,N
1499605956.0,286046981.8,N
1499605975.8,286046981.5,N
1499605995.6,286046982.2,N
1499606015.5,286046982.4,N
1499606035.3,286046984.5,N
1499606055.1,286046984.3,N
1499606075.9,286046985.5,N
1499606095.7,286046988.0,N
1499606115.6,286046990.0,N
1499606135.4,286046989.1,N
1499606155.2,286046990.6,N
1499606175.1,286046992.9,N
1499606176.0,286046992.9,N
1499606195.8,286046991.7,N
1499606215.6,286046994.5,N
1499606235.5,286046990.8,N
1499606255.3,286046988.7,N
1499606275.1,286046989.2,N
1499606295.9,286046988.6,N
1499606315.7,286046989.7,N
1499606335.6,286046990.1,N
1499606355.4,286046988.6,N
1499606375.2,286046988.8,N
1499606395.1,286046989.4,N
1499606396.0,286046989.4,N
1499606415.8,286046989.4,N
1499606435.6,286046989.8,N
1499606455.5,286046989.1,N
1499606475.3,286046991.6,N
1499606495.2,286046990.5,N
1499606515.9,286046994.4,N
1499606535.7,286046994.1,N
1499606555.6,286046996.0,N
1499606575.4,286046996.2,N
1499606595.2,286046995.9,N
1499606615.1,286046997.3,N
1499606616.0,286046997.3,N
1499606635.8,286046999.2,N
1499606655.7,286046996.6,N
1499606675.5,286047000.3,N
1499606695.3,286047000.4,N
1499606715.2,286047000.9,N
1499606735.0,286047000.3,N
1499606735.9,286047000.3,N
1499606755.8,286047000.2,N
1499606775.6,286047002.1,N
1499606795.4,286047000.6,N
1499606815.3,286046998.5,N
1499606835.1,286046999.1,N
1499606855.8,286046998.7,N
1499606875.7,286047001.2,N
1499606895.5,286047000.7,N
1499606915.4,286046998.4,N
1499606935.2,286046995.8,N
1499606955.0,286046995.3,N
1499606955.9,286046995.3,N
1499606975.8,286046995.4,N
1499606995.6,286046996.1,N
1499607015.4,286046995.5,N
1499607035.3,286046999.2,N
1499607055.1,286046997.7,N
1499607075.9,286046999.2,N
1499607095.7,286046999.9,N
1499607115.5,286047000.4,N
1499607135.4,286047000.1,N
1499607155.2,286047002.6,N
1499607175.0,286046999.8,N
1499607175.9,286046999.8,N
1499607195.8,286047001.8,N
1499607215.6,286047001.6,N
1499607235.5,286047002.9,N
1499607255.3,286047003.8,N
1499607275.1,286047004.4,N
1499607295.9,286047003.9,N
1499607315.7,286047003.6,N
1499607335.5,286047003.9,N
1499607355.4,286047003.5,N
1499607375.2,286047004.8,N
1499607395.1,286047004.8,N
1499607396.0,286047004.8,N
1499607415.8,286047005.3,N
1499607435.6,286047003.4,N
1499607455.5,286047007.5,N
1499607475.3,286047004.7,N
1499607495.1,286047005.5,N
1499607515.9,286047007.4,N
1499607535.7,286047004.9,N
1499607555.6,286047006.8,N
1499607575.4,286047009.2,N
1499607595.2,286047006.5,N
1499607615.1,286047006.4,N
1499607616.0,286047006.4,N
1499607635.8,286047006.1,N
1499607655.6,286047006.6,N
1499607675.5,286047006.8,N
1499607695.3,286047008.1,N
1499607715.1,286047008.8,N
1499607735.9,286047008.5,N
1499607755.7,286047008.4,N
1499607775.6,286047007.8,N
1499607795.4,286047010.6,N
1499607815.2,286047007.8,N
1499607835.1,286047008.8,N
1499607836.0,286047008.8,N
1499607855.8,286047007.4,N
1499607875.6,286047002.9,N
1499607895.5,286047002.6,N
1499607915.3,286047000.9,N
1499607935.2,286046998.3,N
1499607955.9,286047000.0,N
1499607975.7,286046999.4,N
1499607995.6,286046997.6,N
1499608015.4,286046995.4,N
1499608035.2,286046996.2,N
1499608055.1,286046994.4,N
1499608056.0,286046994.4,N
1499608075.8,286046994.6,N
1499608095.7,286046993.1,N
1499608115.5,286046989.1,N
1499608135.3,286046988.8,N
1499608155.2,286046987.3,N
1499608175.0,286046989.9,N
1499608175.9,286046989.9,N
1499608195.7,286046989.4,N
1499608215.6,286046987.9,N
1499608235.4,286046985.4,N
1499608255.3,286046986.4,N
1499608275.1,286046984.8,N
1499608276.0,286046984.8,N
1499608295.8,286046979.2,N
1499608315.7,286046977.3,N
1499608335.5,286046979.9,N
1499608355.3,286046978.0,N
1499608375.2,286046978.3,N
1499608395.0,286046975.7,N
1499608395.9,286046975.7,N
1499608415.8,286046977.0,N
1499608435.6,286046977.0,N
1499608455.4,286046976.8,N
1499608475.3,286046978.4,N
1499608495.1,286046978.8,N
1499608515.9,286046978.2,N
1499608535.7,286046980.1,N
1499608555.5,286046977.7,N
1499608575.4,286046979.7,N
1499608595.2,286046980.3,N
1499608615.0,286046980.4,N
1499608615.9,286046980.4,N
1499608635.8,286046980.0,N
1499608655.6,286046974.1,N
1499608675.4,286046975.4,N
1499608695.3,286046973.9,N
1499608715.1,286046970.9,N
1499608735.9,286046970.9,N
1499608755.7,286046970.9,N
1499608775.5,286046974.0,N
1499608795.4,286046973.7,N
